STARLINK-4032 (52688 NORAD) Tracking and Keplerian Element Data

This shows tracking and keplerian element data for the satellite.

Feedback or suggestion? Click here.




ElementValue
Catalog52688
NameSTARLINK-4032
Epoch Orbit888
Epoch Day192.91667824
Epoch Year2022
RAAN28.7998
Inclination53.2175
Eccentricity0.0001858
Argument of Perigee17.7371
Mean Anonmoly108.5471
Mean Motion15.53849675
Decay Rate-0.01064919
L11 52688U 22053AJ 22192.91667824 -.01064919 00000+0 -17911-1 0 9991
L22 52688 53.2175 28.7998 0001858 17.7371 108.5471 15.53849675 8888

Live tracking and technical data element details for STARLINK-4032 (NORAD 52688). STARLINK-4032 can be tracked NOW for your location showing map with azimuth and elevation plus other details from your city location.

Track the satellite on the map from your city or location and see movement details for azimuth, elevation, latitude, longitude, range, height, and movement on the map or in text.







IsCatalogInMostPopularTable: catalog: 52688, numindb: 7
Update: records affected: 1



GetName: 52688 STARLINK-4032

Hit Count: updated at: Sun, 14 Aug 2022 00:15:32 GMT